IGO1170 VOMM-OPLA

Flight info

Callsign IGO1170
Flight time 2h 54m
Altitude 38000
Route KAMGU2B KAMGU Q24 DPN A589 ASARI A466 SULOM
Aircraft A320/M-SDE3FGHIRWY/LB1

Departure

Time 2026-04-27 18:58
Airport Chennai International Airport (VOMM)

Arrival

Time 2026-04-27 21:52
Airport Allama Iqbal International Airport (OPLA)
Time Latitude Longitude Altitude Speed Heading
2026-04-27 18:02 12.98280 80.16184 45 ft 0 kts 158°
2026-04-27 18:45 12.98283 80.16183 47 ft 2 kts 158°
2026-04-27 18:45 12.98301 80.16176 44 ft 2 kts 158°
2026-04-27 18:45 12.98319 80.16168 47 ft 3 kts 154°
2026-04-27 18:46 12.98337 80.16159 45 ft 3 kts 148°
2026-04-27 18:46 12.98354 80.16147 43 ft 2 kts 136°
2026-04-27 18:46 12.98361 80.16139 46 ft 0 kts 128°
2026-04-27 18:47 12.98364 80.16140 46 ft 0 kts 69°
2026-04-27 18:52 12.98375 80.16151 45 ft 4 kts 39°
2026-04-27 18:52 12.98420 80.16159 47 ft 10 kts 346°
2026-04-27 18:52 12.98493 80.16133 47 ft 12 kts 346°
2026-04-27 18:53 12.98599 80.16299 47 ft 17 kts 81°
2026-04-27 18:53 12.98637 80.16414 47 ft 18 kts 68°
2026-04-27 18:53 12.98690 80.16556 45 ft 24 kts 70°
2026-04-27 18:53 12.98753 80.16725 46 ft 26 kts 69°
2026-04-27 18:54 12.98821 80.16907 48 ft 28 kts 69°
2026-04-27 18:54 12.98894 80.17102 47 ft 30 kts 69°
2026-04-27 18:54 12.98984 80.17301 49 ft 31 kts 69°
2026-04-27 18:54 12.99062 80.17514 50 ft 30 kts 69°
2026-04-27 18:55 12.99126 80.17679 49 ft 17 kts 64°
2026-04-27 18:55 12.99207 80.17725 50 ft 13 kts 55°
2026-04-27 18:55 12.99247 80.17827 51 ft 23 kts 69°
2026-04-27 18:55 12.99321 80.18022 51 ft 31 kts 68°
2026-04-27 18:56 12.99351 80.18199 52 ft 19 kts 100°
2026-04-27 18:56 12.99387 80.18276 51 ft 10 kts 58°
2026-04-27 18:56 12.99442 80.18333 51 ft 12 kts 39°
2026-04-27 18:56 12.99514 80.18397 51 ft 15 kts 37°
2026-04-27 18:57 12.99573 80.18371 51 ft 11 kts 246°
2026-04-27 18:57 12.99545 80.18297 51 ft 12 kts 252°
2026-04-27 18:57 12.99465 80.18087 52 ft 63 kts 249°
2026-04-27 18:57 12.99224 80.17452 48 ft 129 kts 249°
2026-04-27 18:58 12.98840 80.16426 355 ft 162 kts 246°
2026-04-27 18:58 12.98581 80.15698 1020 ft 161 kts 246°
2026-04-27 18:58 12.98499 80.14183 1841 ft 177 kts 294°
2026-04-27 18:58 12.99490 80.13333 2059 ft 206 kts 343°
2026-04-27 18:59 13.00993 80.13140 2289 ft 230 kts 355°
2026-04-27 18:59 13.02682 80.13055 2607 ft 256 kts 356°
2026-04-27 18:59 13.04538 80.12978 3091 ft 275 kts 355°
2026-04-27 18:59 13.06472 80.12981 3868 ft 282 kts
2026-04-27 19:00 13.08423 80.13277 4741 ft 284 kts
2026-04-27 19:00 13.10385 80.13585 5485 ft 286 kts
2026-04-27 19:00 13.12348 80.13889 5683 ft 285 kts
2026-04-27 19:00 13.14315 80.14185 5859 ft 283 kts
2026-04-27 19:01 13.16248 80.14469 5862 ft 280 kts
2026-04-27 19:01 13.18164 80.14748 5859 ft 278 kts
2026-04-27 19:01 13.20078 80.15025 5859 ft 278 kts
2026-04-27 19:01 13.22015 80.15069 5855 ft 279 kts 357°
2026-04-27 19:02 13.23930 80.14948 5857 ft 279 kts 357°
2026-04-27 19:02 13.25893 80.14827 5853 ft 279 kts 358°
2026-04-27 19:02 13.27829 80.14709 5852 ft 279 kts 357°
2026-04-27 19:02 13.29766 80.14592 5854 ft 279 kts 357°
2026-04-27 19:03 13.31665 80.14350 5852 ft 279 kts 346°
2026-04-27 19:03 13.33499 80.13636 6224 ft 284 kts 338°
2026-04-27 19:03 13.35311 80.12837 7049 ft 284 kts 340°
2026-04-27 19:03 13.36540 80.12302 7606 ft 284 kts 340°
2026-04-27 19:04 13.38968 80.11255 8585 ft 288 kts 340°
2026-04-27 19:04 13.40832 80.10455 9297 ft 293 kts 341°
2026-04-27 19:04 13.42722 80.09642 9975 ft 298 kts 341°
2026-04-27 19:04 13.44709 80.08789 10161 ft 321 kts 340°
2026-04-27 19:05 13.46824 80.07877 10460 ft 336 kts 340°
2026-04-27 19:05 13.48996 80.06935 11018 ft 341 kts 340°
2026-04-27 19:05 13.51190 80.05981 11660 ft 344 kts 340°
2026-04-27 19:05 13.53396 80.05023 12307 ft 345 kts 340°
2026-04-27 19:06 13.55615 80.04057 12948 ft 347 kts 340°
2026-04-27 19:06 13.57090 80.03413 13353 ft 349 kts 340°
2026-04-27 19:06 13.59335 80.02434 13921 ft 352 kts 340°
2026-04-27 19:06 13.61600 80.01449 14457 ft 355 kts 340°
2026-04-27 19:07 13.63886 80.00455 14931 ft 359 kts 339°
2026-04-27 19:07 13.66204 79.99448 15391 ft 363 kts 340°
2026-04-27 19:07 13.68538 79.98434 15884 ft 367 kts 339°
2026-04-27 19:07 13.70902 79.97406 16356 ft 371 kts 339°
2026-04-27 19:08 13.73292 79.96367 16814 ft 375 kts 339°
2026-04-27 19:08 13.75714 79.95315 17275 ft 379 kts 339°
2026-04-27 19:08 13.78157 79.94253 17731 ft 383 kts 339°
2026-04-27 19:08 13.80630 79.93179 18159 ft 388 kts 339°
2026-04-27 19:09 13.83129 79.92089 18550 ft 391 kts 339°
2026-04-27 19:09 13.85644 79.90992 18969 ft 394 kts 339°
2026-04-27 19:09 13.88172 79.89890 19388 ft 396 kts 339°
2026-04-27 19:09 13.90713 79.88782 19838 ft 398 kts 339°
2026-04-27 19:10 13.93270 79.87666 20286 ft 399 kts 338°
2026-04-27 19:10 13.95836 79.86549 20733 ft 401 kts 338°
2026-04-27 19:10 13.98415 79.85426 21166 ft 403 kts 338°
2026-04-27 19:10 14.00128 79.84680 21446 ft 404 kts 337°
2026-04-27 19:11 14.03605 79.83165 21992 ft 407 kts 337°
2026-04-27 19:11 14.06221 79.82024 22405 ft 410 kts 337°
2026-04-27 19:11 14.08851 79.80876 22813 ft 412 kts 336°
2026-04-27 19:11 14.11495 79.79720 23210 ft 414 kts 336°
2026-04-27 19:12 14.14151 79.78558 23565 ft 416 kts 336°
2026-04-27 19:12 14.16822 79.77389 23904 ft 418 kts 336°
2026-04-27 19:12 14.19504 79.76215 24244 ft 420 kts 336°
2026-04-27 19:12 14.22196 79.75036 24596 ft 421 kts 336°
2026-04-27 19:13 14.24902 79.73851 24926 ft 423 kts 336°
2026-04-27 19:13 14.27618 79.72664 25265 ft 425 kts 336°
2026-04-27 19:13 14.30344 79.71476 25589 ft 427 kts 336°
2026-04-27 19:13 14.33092 79.70278 25929 ft 429 kts 335°
2026-04-27 19:14 14.35843 79.69076 26261 ft 431 kts 336°
2026-04-27 19:14 14.38576 79.67880 26584 ft 432 kts 335°
2026-04-27 19:14 14.41348 79.66665 26909 ft 434 kts 335°
2026-04-27 19:14 14.44131 79.65446 27229 ft 436 kts 335°
2026-04-27 19:15 14.46926 79.64221 27542 ft 438 kts 335°
2026-04-27 19:15 14.49735 79.62990 27862 ft 439 kts 335°
2026-04-27 19:15 14.52551 79.61754 28188 ft 441 kts 335°
2026-04-27 19:15 14.55380 79.60512 28527 ft 443 kts 335°
2026-04-27 19:16 14.58223 79.59262 28866 ft 445 kts 335°
2026-04-27 19:16 14.60154 79.58414 29098 ft 446 kts 335°
2026-04-27 19:16 14.63943 79.56752 29542 ft 449 kts 335°
2026-04-27 19:16 14.66829 79.55485 29872 ft 451 kts 335°
2026-04-27 19:17 14.69721 79.54217 30162 ft 453 kts 334°
2026-04-27 19:17 14.72620 79.52946 30521 ft 452 kts 334°
2026-04-27 19:17 14.75504 79.51682 30952 ft 450 kts 334°
2026-04-27 19:17 14.78378 79.50421 31369 ft 448 kts 333°
2026-04-27 19:18 14.81249 79.49160 31781 ft 447 kts 333°
2026-04-27 19:18 14.84104 79.47904 32195 ft 446 kts 333°
2026-04-27 19:18 14.86957 79.46649 32617 ft 445 kts 333°
2026-04-27 19:18 14.89798 79.45398 33043 ft 444 kts 333°
2026-04-27 19:19 14.92640 79.44147 33463 ft 442 kts 333°
2026-04-27 19:19 14.95466 79.42904 33874 ft 441 kts 332°
2026-04-27 19:19 14.98356 79.41809 34194 ft 446 kts 340°
2026-04-27 19:19 15.01343 79.41064 34479 ft 448 kts 342°
2026-04-27 19:20 15.04379 79.40333 34755 ft 448 kts 342°
2026-04-27 19:20 15.07419 79.39601 35043 ft 449 kts 341°
2026-04-27 19:20 15.10460 79.38870 35309 ft 449 kts 341°
2026-04-27 19:20 15.13503 79.38136 35592 ft 449 kts 341°
2026-04-27 19:21 15.16547 79.37399 35863 ft 449 kts 341°
2026-04-27 19:21 15.19585 79.36661 36130 ft 449 kts 341°
2026-04-27 19:21 15.22635 79.35922 36390 ft 450 kts 341°
2026-04-27 19:21 15.25680 79.35185 36649 ft 450 kts 341°
2026-04-27 19:22 15.28733 79.34448 36904 ft 450 kts 341°
2026-04-27 19:22 15.31786 79.33709 37156 ft 450 kts 340°
2026-04-27 19:22 15.34841 79.32971 37404 ft 451 kts 340°
2026-04-27 19:22 15.37892 79.32233 37650 ft 451 kts 340°
2026-04-27 19:23 15.40949 79.31493 37831 ft 453 kts 341°
2026-04-27 19:23 15.47140 79.29985 37856 ft 458 kts 341°
2026-04-27 19:24 15.53352 79.28471 37863 ft 459 kts 341°
2026-04-27 19:24 15.59573 79.26962 37872 ft 459 kts 341°
2026-04-27 19:25 15.65792 79.25448 37867 ft 459 kts 341°
2026-04-27 19:25 15.72012 79.23936 37872 ft 459 kts 341°
2026-04-27 19:26 15.78238 79.22427 37880 ft 460 kts 341°
2026-04-27 19:26 15.84425 79.20917 37886 ft 460 kts 341°
2026-04-27 19:27 15.90661 79.19397 37888 ft 460 kts 341°
2026-04-27 19:27 15.96882 79.17884 37891 ft 457 kts 341°
2026-04-27 19:28 16.03070 79.16378 37889 ft 456 kts 341°
2026-04-27 19:28 16.09254 79.14881 37904 ft 456 kts 340°
2026-04-27 19:29 16.15436 79.13397 37903 ft 456 kts 340°
2026-04-27 19:29 16.21621 79.11910 37914 ft 456 kts 340°
2026-04-27 19:30 16.27804 79.10411 37915 ft 456 kts 340°
2026-04-27 19:30 16.33984 79.08915 37913 ft 456 kts 340°
2026-04-27 19:31 16.40166 79.07417 37912 ft 456 kts 340°
2026-04-27 19:31 16.46333 79.05922 37916 ft 454 kts 339°
2026-04-27 19:32 16.52503 79.04433 37920 ft 456 kts 339°
2026-04-27 19:32 16.58650 79.02946 37920 ft 456 kts 339°
2026-04-27 19:33 16.64836 79.01445 37920 ft 457 kts 339°
2026-04-27 19:33 16.71024 78.99936 37919 ft 457 kts 339°
2026-04-27 19:34 16.77209 78.98430 37927 ft 456 kts 339°
2026-04-27 19:34 16.83385 78.96929 37940 ft 455 kts 339°
2026-04-27 19:35 16.89559 78.95432 37949 ft 455 kts 339°
2026-04-27 19:35 16.95727 78.93931 37944 ft 455 kts 339°
2026-04-27 19:36 17.01897 78.92420 37945 ft 455 kts 339°
2026-04-27 19:36 17.08069 78.90918 37946 ft 455 kts 339°
2026-04-27 19:37 17.14189 78.89431 37959 ft 454 kts 338°
2026-04-27 19:37 17.20378 78.87918 37951 ft 454 kts 338°
2026-04-27 19:38 17.26486 78.86425 37949 ft 454 kts 339°
2026-04-27 19:38 17.32635 78.84924 37947 ft 454 kts 339°
2026-04-27 19:39 17.38785 78.83418 37950 ft 454 kts 338°
2026-04-27 19:39 17.44930 78.81911 37964 ft 453 kts 339°
2026-04-27 19:40 17.51071 78.80412 37966 ft 453 kts 339°
2026-04-27 19:40 17.57222 78.78926 37954 ft 453 kts 339°
2026-04-27 19:41 17.63363 78.77443 37954 ft 453 kts 339°
2026-04-27 19:41 17.69506 78.75952 37957 ft 453 kts 339°
2026-04-27 19:42 17.75648 78.74460 37956 ft 453 kts 339°
2026-04-27 19:42 17.81773 78.72974 37963 ft 451 kts 339°
2026-04-27 19:43 17.87883 78.71487 37951 ft 451 kts 338°
2026-04-27 19:43 17.93986 78.69992 37947 ft 450 kts 338°
2026-04-27 19:44 18.00095 78.68499 37943 ft 451 kts 338°
2026-04-27 19:44 18.06210 78.67013 37943 ft 452 kts 338°
2026-04-27 19:45 18.12346 78.65523 37942 ft 452 kts 338°
2026-04-27 19:45 18.18466 78.64017 37943 ft 451 kts 338°
2026-04-27 19:46 18.24578 78.62499 37943 ft 451 kts 338°
2026-04-27 19:46 18.30683 78.60977 37944 ft 451 kts 338°
2026-04-27 19:47 18.36796 78.59461 37931 ft 451 kts 338°
2026-04-27 19:47 18.42867 78.57953 37933 ft 451 kts 338°
2026-04-27 19:48 18.48977 78.56430 37933 ft 451 kts 338°
2026-04-27 19:48 18.55084 78.54914 37930 ft 451 kts 338°
2026-04-27 19:49 18.61194 78.53395 37930 ft 451 kts 338°
2026-04-27 19:49 18.67304 78.51873 37924 ft 451 kts 338°
2026-04-27 19:50 18.73416 78.50353 37924 ft 451 kts 338°
2026-04-27 19:50 18.79530 78.48828 37940 ft 450 kts 338°
2026-04-27 19:51 18.85625 78.47313 37939 ft 450 kts 338°
2026-04-27 19:51 18.91709 78.45792 37931 ft 449 kts 338°
2026-04-27 19:52 18.97800 78.44266 37930 ft 449 kts 338°
2026-04-27 19:52 19.03886 78.42742 37931 ft 449 kts 338°
2026-04-27 19:53 19.13014 78.40468 37944 ft 449 kts 338°
2026-04-27 19:53 19.19087 78.38943 37936 ft 448 kts 337°
2026-04-27 19:54 19.24114 78.37630 37936 ft 447 kts 337°
2026-04-27 19:54 19.30148 78.36013 37927 ft 447 kts 337°
2026-04-27 19:55 19.36182 78.34407 37927 ft 447 kts 337°
2026-04-27 19:55 19.42224 78.32808 37942 ft 448 kts 337°
2026-04-27 19:56 19.48257 78.31218 37943 ft 446 kts 337°
2026-04-27 19:56 19.54282 78.29629 37942 ft 446 kts 337°
2026-04-27 19:57 19.60263 78.28044 37890 ft 448 kts 337°
2026-04-27 19:57 19.66364 78.26442 37834 ft 449 kts 337°
2026-04-27 19:58 19.72440 78.24855 37821 ft 450 kts 337°
2026-04-27 19:58 19.78513 78.23270 37818 ft 449 kts 337°
2026-04-27 19:59 19.84567 78.21681 37812 ft 448 kts 336°
2026-04-27 19:59 19.90619 78.20090 37816 ft 448 kts 337°
2026-04-27 20:00 19.96677 78.18501 37819 ft 449 kts 337°
2026-04-27 20:00 20.02741 78.16905 37826 ft 449 kts 336°
2026-04-27 20:01 20.08808 78.15306 37845 ft 449 kts 336°
2026-04-27 20:01 20.14835 78.13722 37838 ft 449 kts 336°
2026-04-27 20:02 20.20899 78.12123 37832 ft 449 kts 336°
2026-04-27 20:02 20.26961 78.10521 37833 ft 449 kts 336°
2026-04-27 20:03 20.33025 78.08917 37834 ft 449 kts 336°
2026-04-27 20:03 20.39083 78.07314 37833 ft 449 kts 336°
2026-04-27 20:04 20.45142 78.05712 37846 ft 448 kts 336°
2026-04-27 20:04 20.51193 78.04110 37838 ft 448 kts 336°
2026-04-27 20:05 20.57239 78.02507 37836 ft 447 kts 336°
2026-04-27 20:05 20.63310 78.00987 37834 ft 449 kts 338°
2026-04-27 20:06 20.69359 77.99540 37832 ft 449 kts 338°
2026-04-27 20:06 20.75446 77.98069 37848 ft 448 kts 338°
2026-04-27 20:07 20.81518 77.96579 37843 ft 447 kts 338°
2026-04-27 20:07 20.87580 77.95080 37841 ft 447 kts 338°
2026-04-27 20:08 20.93639 77.93577 37835 ft 447 kts 338°
2026-04-27 20:08 20.99711 77.92083 37836 ft 448 kts 338°
2026-04-27 20:09 21.05790 77.90588 37860 ft 448 kts 339°
2026-04-27 20:09 21.11861 77.89098 37858 ft 447 kts 339°
2026-04-27 20:10 21.17920 77.87601 37853 ft 447 kts 338°
2026-04-27 20:10 21.23977 77.86099 37858 ft 447 kts 339°
2026-04-27 20:11 21.30035 77.84608 37861 ft 446 kts 339°
2026-04-27 20:11 21.36083 77.83114 37876 ft 446 kts 339°
2026-04-27 20:12 21.42132 77.81619 37874 ft 446 kts 339°
2026-04-27 20:12 21.48136 77.80133 37875 ft 446 kts 339°
2026-04-27 20:13 21.54171 77.78636 37870 ft 445 kts 339°
2026-04-27 20:13 21.60199 77.77140 37865 ft 445 kts 339°
2026-04-27 20:14 21.66237 77.75643 37873 ft 445 kts 339°
2026-04-27 20:14 21.72263 77.74139 37876 ft 445 kts 339°
2026-04-27 20:15 21.78290 77.72641 37878 ft 445 kts 339°
2026-04-27 20:15 21.84319 77.71138 37874 ft 445 kts 339°
2026-04-27 20:16 21.90346 77.69634 37870 ft 445 kts 339°
2026-04-27 20:16 21.96378 77.68127 37873 ft 445 kts 339°
2026-04-27 20:17 22.02401 77.66623 37879 ft 445 kts 339°
2026-04-27 20:17 22.07414 77.65372 37878 ft 445 kts 339°
2026-04-27 20:18 22.14447 77.63548 37868 ft 445 kts 338°
2026-04-27 20:18 22.20464 77.61961 37868 ft 445 kts 338°
2026-04-27 20:19 22.26492 77.60386 37864 ft 446 kts 338°
2026-04-27 20:19 22.32520 77.58820 37877 ft 446 kts 339°
2026-04-27 20:20 22.38560 77.57253 37849 ft 447 kts 339°
2026-04-27 20:20 22.44566 77.55691 37852 ft 447 kts 339°
2026-04-27 20:21 22.50614 77.54107 37854 ft 447 kts 339°
2026-04-27 20:21 22.56667 77.52517 37846 ft 447 kts 339°
2026-04-27 20:22 22.62716 77.50928 37871 ft 448 kts 340°
2026-04-27 20:22 22.68774 77.49351 37854 ft 448 kts 340°
2026-04-27 20:23 22.74835 77.47764 37855 ft 448 kts 340°
2026-04-27 20:23 22.80898 77.46169 37853 ft 448 kts 340°
2026-04-27 20:24 22.86962 77.44578 37852 ft 449 kts 340°
2026-04-27 20:24 22.93028 77.42977 37870 ft 449 kts 340°
2026-04-27 20:25 22.99097 77.41373 37866 ft 449 kts 340°
2026-04-27 20:25 23.05168 77.39779 37863 ft 449 kts 341°
2026-04-27 20:26 23.11202 77.38199 37860 ft 449 kts 340°
2026-04-27 20:26 23.17263 77.36598 37861 ft 448 kts 340°
2026-04-27 20:27 23.23322 77.34989 37883 ft 448 kts 340°
2026-04-27 20:27 23.29450 77.33621 37889 ft 455 kts 351°
2026-04-27 20:28 23.35797 77.33319 37883 ft 457 kts 353°
2026-04-27 20:28 23.41073 77.33083 37876 ft 457 kts 352°
2026-04-27 20:29 23.48498 77.32735 37865 ft 457 kts 352°
2026-04-27 20:29 23.54849 77.32430 37869 ft 457 kts 353°
2026-04-27 20:30 23.61204 77.32125 37856 ft 457 kts 353°
2026-04-27 20:30 23.67564 77.31834 37854 ft 458 kts 353°
2026-04-27 20:31 23.73930 77.31542 37851 ft 458 kts 353°
2026-04-27 20:31 23.80290 77.31247 37849 ft 458 kts 353°
2026-04-27 20:32 23.86650 77.30945 37861 ft 457 kts 353°
2026-04-27 20:32 23.93005 77.30642 37852 ft 457 kts 353°
2026-04-27 20:33 23.99364 77.30344 37853 ft 457 kts 353°
2026-04-27 20:33 24.05714 77.30054 37851 ft 457 kts 353°
2026-04-27 20:34 24.12065 77.29753 37848 ft 457 kts 353°
2026-04-27 20:34 24.18411 77.29451 37866 ft 456 kts 353°
2026-04-27 20:35 24.24715 77.29153 37847 ft 456 kts 353°
2026-04-27 20:35 24.31053 77.28856 37841 ft 456 kts 353°
2026-04-27 20:36 24.37391 77.28563 37838 ft 456 kts 353°
2026-04-27 20:36 24.43719 77.28262 37838 ft 456 kts 353°
2026-04-27 20:37 24.50060 77.27957 37848 ft 456 kts 353°
2026-04-27 20:37 24.56390 77.27655 37843 ft 456 kts 353°
2026-04-27 20:38 24.62731 77.27356 37841 ft 456 kts 353°
2026-04-27 20:38 24.69069 77.27041 37840 ft 455 kts 353°
2026-04-27 20:39 24.75406 77.26750 37836 ft 456 kts 354°
2026-04-27 20:39 24.81741 77.26496 37836 ft 456 kts 354°
2026-04-27 20:40 24.88077 77.26228 37833 ft 455 kts 353°
2026-04-27 20:40 24.94411 77.25958 37832 ft 455 kts 353°
2026-04-27 20:41 25.00742 77.25686 37826 ft 455 kts 353°
2026-04-27 20:41 25.07070 77.25444 37825 ft 455 kts 354°
2026-04-27 20:42 25.13355 77.25224 37829 ft 455 kts 354°
2026-04-27 20:42 25.19682 77.25002 37825 ft 455 kts 354°
2026-04-27 20:43 25.26002 77.24779 37820 ft 455 kts 354°
2026-04-27 20:43 25.32320 77.24553 37819 ft 455 kts 354°
2026-04-27 20:44 25.37585 77.24365 37816 ft 455 kts 354°
2026-04-27 20:44 25.43906 77.24138 37828 ft 454 kts 354°
2026-04-27 20:45 25.50221 77.23908 37821 ft 453 kts 354°
2026-04-27 20:45 25.56517 77.23681 37818 ft 453 kts 354°
2026-04-27 20:46 25.62813 77.23447 37812 ft 452 kts 354°
2026-04-27 20:46 25.69103 77.23208 37809 ft 452 kts 354°
2026-04-27 20:47 25.75396 77.22979 37815 ft 452 kts 354°
2026-04-27 20:47 25.81688 77.22758 37802 ft 452 kts 354°
2026-04-27 20:48 25.87973 77.22529 37799 ft 452 kts 354°
2026-04-27 20:48 25.94251 77.22298 37805 ft 451 kts 354°
2026-04-27 20:49 26.00531 77.22066 37813 ft 451 kts 354°
2026-04-27 20:49 26.06806 77.21835 37800 ft 451 kts 354°
2026-04-27 20:50 26.13081 77.21595 37799 ft 451 kts 354°
2026-04-27 20:50 26.19356 77.21324 37802 ft 451 kts 353°
2026-04-27 20:51 26.25618 77.20994 37801 ft 451 kts 353°
2026-04-27 20:51 26.31840 77.20661 37812 ft 450 kts 353°
2026-04-27 20:52 26.38082 77.20327 37808 ft 446 kts 353°
2026-04-27 20:52 26.44363 77.19995 37815 ft 459 kts 353°
2026-04-27 20:53 26.50845 77.19658 37788 ft 473 kts 353°
2026-04-27 20:53 26.57516 77.19323 37773 ft 487 kts 353°
2026-04-27 20:54 26.64174 77.19009 38194 ft 473 kts 353°
2026-04-27 20:54 26.67421 77.18853 38182 ft 461 kts 353°
2026-04-27 20:55 26.73713 77.18522 38177 ft 449 kts 353°
2026-04-27 20:55 26.79935 77.18186 37863 ft 447 kts 353°
2026-04-27 20:55 26.83021 77.18021 37731 ft 442 kts 353°
2026-04-27 20:56 26.86101 77.17861 37743 ft 444 kts 353°
2026-04-27 20:56 26.92309 77.17537 37725 ft 447 kts 353°
2026-04-27 20:57 26.98596 77.17210 37725 ft 457 kts 353°
2026-04-27 20:57 27.04977 77.16888 37728 ft 460 kts 353°
2026-04-27 20:58 27.11374 77.16565 37728 ft 460 kts 353°
2026-04-27 20:58 27.17769 77.16228 37725 ft 460 kts 353°
2026-04-27 20:59 27.24070 77.15892 37715 ft 451 kts 353°
2026-04-27 20:59 27.30298 77.15560 37716 ft 447 kts 353°
2026-04-27 21:00 27.36511 77.15233 37720 ft 447 kts 353°
2026-04-27 21:00 27.42730 77.14917 37720 ft 447 kts 353°
2026-04-27 21:01 27.48937 77.14599 37733 ft 447 kts 353°
2026-04-27 21:01 27.55145 77.14268 37736 ft 446 kts 353°
2026-04-27 21:02 27.61339 77.13942 37737 ft 445 kts 353°
2026-04-27 21:02 27.67525 77.13617 37740 ft 445 kts 353°
2026-04-27 21:03 27.73716 77.13325 37738 ft 445 kts 353°
2026-04-27 21:03 27.79909 77.13041 37733 ft 445 kts 353°
2026-04-27 21:04 27.86098 77.12742 37736 ft 445 kts 353°
2026-04-27 21:04 27.92281 77.12448 37734 ft 445 kts 353°
2026-04-27 21:05 27.98434 77.12160 37739 ft 445 kts 353°
2026-04-27 21:05 28.04621 77.11870 37742 ft 445 kts 353°
2026-04-27 21:06 28.10803 77.11578 37751 ft 444 kts 353°
2026-04-27 21:06 28.16972 77.11275 37748 ft 443 kts 353°
2026-04-27 21:07 28.23134 77.10978 37746 ft 443 kts 353°
2026-04-27 21:07 28.29287 77.10685 37747 ft 443 kts 353°
2026-04-27 21:08 28.35443 77.10392 37769 ft 442 kts 353°
2026-04-27 21:08 28.41588 77.10096 37758 ft 442 kts 353°
2026-04-27 21:09 28.47725 77.09802 37752 ft 441 kts 353°
2026-04-27 21:09 28.50743 77.09417 37750 ft 434 kts 342°
2026-04-27 21:09 28.53588 77.08353 37747 ft 427 kts 330°
2026-04-27 21:10 28.58311 77.04507 37730 ft 415 kts 309°
2026-04-27 21:10 28.60053 77.01919 37721 ft 411 kts 298°
2026-04-27 21:10 28.61402 76.99062 37726 ft 410 kts 295°
2026-04-27 21:11 28.64042 76.93303 37740 ft 410 kts 296°
2026-04-27 21:11 28.66690 76.87542 37737 ft 411 kts 296°
2026-04-27 21:12 28.69314 76.81821 37740 ft 410 kts 296°
2026-04-27 21:12 28.71941 76.76051 37745 ft 410 kts 296°
2026-04-27 21:13 28.74561 76.70281 37740 ft 410 kts 296°
2026-04-27 21:13 28.77185 76.64513 37745 ft 410 kts 296°
2026-04-27 21:14 28.79805 76.58751 37745 ft 409 kts 296°
2026-04-27 21:14 28.82417 76.52985 37736 ft 409 kts 296°
2026-04-27 21:15 28.85025 76.47217 37715 ft 409 kts 295°
2026-04-27 21:15 28.87634 76.41440 37742 ft 410 kts 296°
2026-04-27 21:16 28.90251 76.35652 37718 ft 411 kts 296°
2026-04-27 21:16 28.92867 76.29847 37721 ft 411 kts 296°
2026-04-27 21:17 28.95481 76.24041 37728 ft 411 kts 296°
2026-04-27 21:17 28.98076 76.18268 37714 ft 412 kts 296°
2026-04-27 21:18 29.00703 76.12407 37708 ft 412 kts 295°
2026-04-27 21:18 29.03293 76.06626 37718 ft 412 kts 295°
2026-04-27 21:19 29.05900 76.00801 37721 ft 412 kts 295°
2026-04-27 21:19 29.08500 75.94972 37744 ft 412 kts 295°
2026-04-27 21:20 29.12415 75.86200 37733 ft 413 kts 295°
2026-04-27 21:20 29.15024 75.80345 37717 ft 413 kts 295°
2026-04-27 21:21 29.17626 75.74480 37716 ft 413 kts 295°
2026-04-27 21:21 29.20235 75.68616 37706 ft 414 kts 295°
2026-04-27 21:22 29.22839 75.62746 37720 ft 413 kts 295°
2026-04-27 21:22 29.25436 75.56868 37713 ft 413 kts 295°
2026-04-27 21:23 29.28013 75.51031 37719 ft 414 kts 295°
2026-04-27 21:23 29.30727 75.45218 37713 ft 415 kts 303°
2026-04-27 21:24 29.32622 75.42717 37723 ft 419 kts 315°
2026-04-27 21:24 29.34975 75.40722 37711 ft 424 kts 327°
2026-04-27 21:24 29.37682 75.39340 37720 ft 430 kts 339°
2026-04-27 21:24 29.40626 75.38631 37710 ft 435 kts 347°
2026-04-27 21:25 29.46625 75.37673 37705 ft 436 kts 348°
2026-04-27 21:25 29.52640 75.36723 37703 ft 437 kts 348°
2026-04-27 21:26 29.58661 75.35758 37735 ft 437 kts 347°
2026-04-27 21:26 29.64689 75.34783 37725 ft 437 kts 347°
2026-04-27 21:27 29.70711 75.33807 37719 ft 437 kts 347°
2026-04-27 21:27 29.76741 75.32832 37715 ft 437 kts 347°
2026-04-27 21:28 29.82771 75.31852 37716 ft 437 kts 347°
2026-04-27 21:28 29.88795 75.30881 37727 ft 437 kts 347°
2026-04-27 21:29 29.94823 75.29909 37723 ft 437 kts 347°
2026-04-27 21:29 30.00574 75.28969 37720 ft 437 kts 347°
2026-04-27 21:30 30.06596 75.27979 37721 ft 437 kts 347°
2026-04-27 21:30 30.12619 75.26997 37207 ft 439 kts 347°
2026-04-27 21:31 30.15666 75.26501 36084 ft 445 kts 347°
2026-04-27 21:31 30.18722 75.26008 35599 ft 442 kts 347°
2026-04-27 21:31 30.21750 75.25519 35237 ft 437 kts 347°
2026-04-27 21:31 30.24749 75.25031 34820 ft 433 kts 347°
2026-04-27 21:32 30.27731 75.24543 34224 ft 434 kts 347°
2026-04-27 21:32 30.30742 75.24046 33617 ft 436 kts 347°
2026-04-27 21:32 30.33738 75.23555 33136 ft 433 kts 347°
2026-04-27 21:32 30.36708 75.23068 32646 ft 430 kts 347°
2026-04-27 21:33 30.39655 75.22585 32161 ft 426 kts 347°
2026-04-27 21:33 30.41594 75.22267 31841 ft 424 kts 347°
2026-04-27 21:33 30.44506 75.21789 31361 ft 420 kts 347°
2026-04-27 21:33 30.47389 75.21315 30896 ft 417 kts 347°
2026-04-27 21:34 30.51169 75.20695 30284 ft 412 kts 347°
2026-04-27 21:34 30.53998 75.20229 29836 ft 409 kts 347°
2026-04-27 21:34 30.56801 75.19767 29344 ft 405 kts 347°
2026-04-27 21:34 30.58676 75.19459 29055 ft 401 kts 347°
2026-04-27 21:35 30.61434 75.19005 28400 ft 401 kts 347°
2026-04-27 21:35 30.64173 75.18548 27301 ft 402 kts 347°
2026-04-27 21:35 30.66977 75.18081 26238 ft 401 kts 347°
2026-04-27 21:35 30.69730 75.17626 25340 ft 398 kts 347°
2026-04-27 21:36 30.72452 75.17178 24530 ft 392 kts 347°
2026-04-27 21:36 30.75103 75.16743 23759 ft 388 kts 347°
2026-04-27 21:36 30.77790 75.16280 22885 ft 382 kts 343°
2026-04-27 21:36 30.80233 75.15335 22013 ft 369 kts 329°
2026-04-27 21:37 30.82352 75.13748 21163 ft 358 kts 316°
2026-04-27 21:37 30.84166 75.11803 20296 ft 352 kts 314°
2026-04-27 21:37 30.85941 75.09870 19447 ft 347 kts 314°
2026-04-27 21:37 30.87693 75.07962 18668 ft 343 kts 314°
2026-04-27 21:38 30.89424 75.06078 17874 ft 338 kts 314°
2026-04-27 21:38 30.91132 75.04225 16987 ft 333 kts 314°
2026-04-27 21:38 30.92821 75.02395 16129 ft 329 kts 314°
2026-04-27 21:38 30.94488 75.00583 15289 ft 326 kts 314°
2026-04-27 21:39 30.96138 74.98788 14480 ft 323 kts 314°
2026-04-27 21:39 30.97771 74.97011 13715 ft 320 kts 314°
2026-04-27 21:39 30.99372 74.95270 13253 ft 308 kts 314°
2026-04-27 21:39 31.00933 74.93571 12870 ft 305 kts 314°
2026-04-27 21:40 31.02475 74.91886 12494 ft 303 kts 314°
2026-04-27 21:40 31.04007 74.90209 12112 ft 301 kts 314°
2026-04-27 21:40 31.05526 74.88547 11747 ft 299 kts 314°
2026-04-27 21:40 31.07040 74.86893 11373 ft 297 kts 314°
2026-04-27 21:41 31.08543 74.85249 11009 ft 295 kts 314°
2026-04-27 21:41 31.10038 74.83613 10652 ft 294 kts 314°
2026-04-27 21:41 31.11520 74.81989 10331 ft 290 kts 314°
2026-04-27 21:41 31.12965 74.80407 10195 ft 280 kts 314°
2026-04-27 21:42 31.14369 74.78869 9648 ft 275 kts 315°
2026-04-27 21:42 31.15744 74.77364 9233 ft 265 kts 315°
2026-04-27 21:42 31.17064 74.75925 8899 ft 254 kts 315°
2026-04-27 21:42 31.18339 74.74533 8586 ft 250 kts 315°
2026-04-27 21:43 31.19606 74.73142 8268 ft 250 kts 314°
2026-04-27 21:43 31.20876 74.71743 7952 ft 251 kts 314°
2026-04-27 21:43 31.22147 74.70342 7630 ft 251 kts 315°
2026-04-27 21:43 31.23419 74.68942 7318 ft 252 kts 315°
2026-04-27 21:44 31.24697 74.67537 6999 ft 253 kts 315°
2026-04-27 21:44 31.25966 74.66145 6683 ft 254 kts 315°
2026-04-27 21:44 31.27260 74.64724 6356 ft 256 kts 315°
2026-04-27 21:44 31.28561 74.63294 6026 ft 258 kts 315°
2026-04-27 21:45 31.29869 74.61851 5677 ft 259 kts 315°
2026-04-27 21:45 31.31182 74.60401 5353 ft 260 kts 315°
2026-04-27 21:45 31.32498 74.58949 5006 ft 261 kts 315°
2026-04-27 21:45 31.33685 74.57352 4663 ft 260 kts 301°
2026-04-27 21:46 31.34436 74.55439 4335 ft 259 kts 284°
2026-04-27 21:46 31.34682 74.53395 4244 ft 249 kts 270°
2026-04-27 21:46 31.34693 74.51412 4162 ft 238 kts 270°
2026-04-27 21:46 31.34714 74.49522 4110 ft 226 kts 271°
2026-04-27 21:47 31.34736 74.47737 4054 ft 213 kts 271°
2026-04-27 21:47 31.34757 74.46031 4010 ft 206 kts 271°
2026-04-27 21:47 31.34788 74.44397 3964 ft 198 kts 276°
2026-04-27 21:47 31.35125 74.42851 3722 ft 198 kts 294°
2026-04-27 21:48 31.35902 74.41531 3401 ft 195 kts 315°
2026-04-27 21:48 31.36986 74.40649 3213 ft 188 kts 334°
2026-04-27 21:48 31.38209 74.40247 3012 ft 179 kts 351°
2026-04-27 21:48 31.39408 74.40233 2808 ft 171 kts 357°
2026-04-27 21:49 31.40592 74.40253 2599 ft 164 kts 356°
2026-04-27 21:49 31.41682 74.40272 2400 ft 155 kts 356°
2026-04-27 21:49 31.42739 74.40291 2217 ft 149 kts 358°
2026-04-27 21:49 31.43751 74.40308 2038 ft 144 kts 359°
2026-04-27 21:50 31.44753 74.40325 1860 ft 145 kts 359°
2026-04-27 21:50 31.45757 74.40343 1682 ft 143 kts 357°
2026-04-27 21:50 31.46754 74.40369 1461 ft 143 kts 359°
2026-04-27 21:50 31.47736 74.40393 1320 ft 141 kts 359°
2026-04-27 21:51 31.48733 74.40412 1115 ft 143 kts 357°
2026-04-27 21:51 31.49732 74.40415 909 ft 142 kts 357°
2026-04-27 21:51 31.50726 74.40432 753 ft 143 kts 359°
2026-04-27 21:51 31.51653 74.40445 724 ft 117 kts
2026-04-27 21:52 31.52337 74.40456 723 ft 76 kts 359°
2026-04-27 21:52 31.52696 74.40467 725 ft 35 kts 358°
2026-04-27 21:52 31.52804 74.40541 724 ft 17 kts 84°
2026-04-27 21:52 31.52805 74.40606 724 ft 0 kts 92°
2026-04-27 21:53 31.52805 74.40608 724 ft 1 kts 92°
2026-04-27 21:53 31.52802 74.40633 724 ft 6 kts 103°
2026-04-27 21:53 31.52741 74.40676 724 ft 16 kts 179°
2026-04-27 21:54 31.52599 74.40676 724 ft 27 kts 181°
2026-04-27 21:54 31.52370 74.40670 724 ft 32 kts 178°
2026-04-27 21:54 31.52168 74.40668 723 ft 25 kts 184°
2026-04-27 21:54 31.52003 74.40660 725 ft 23 kts 178°
2026-04-27 21:55 31.51835 74.40660 723 ft 26 kts 182°
2026-04-27 21:55 31.51722 74.40689 722 ft 14 kts 122°
2026-04-27 21:55 31.51721 74.40804 724 ft 15 kts 61°
2026-04-27 21:55 31.51822 74.40835 722 ft 17 kts
2026-04-27 21:56 31.51959 74.40836 723 ft 21 kts
2026-04-27 21:56 31.52172 74.40886 723 ft 11 kts 93°
2026-04-27 21:56 31.52171 74.40946 723 ft 3 kts 90°
2026-04-27 21:57 31.52171 74.40952 723 ft 0 kts 90°